Regional Weather Roundup
Issued by NWS Goodland, KS

Home | Current Version | Previous Version | Text Only | Print | Product List | Glossary On
Versions: 1 2 3 4 5 6 7 8 9 10 11 12 13 14 15 16 17 18 19 20 21 22 23 24 25 26 27 28 29 30 31 32 33 34 35 36 37 38 39 40 41 42 43 44 45 46 47 48 49 50
000
ASUS43 KGLD 281608
RWRGLD

GOODLAND FORECAST AREA HOURLY WEATHER ROUNDUP
NATIONAL WEATHER SERVICE GOODLAND KS
1000 AM MDT TUE APR 28 2015

...OFFICIAL OBSERVATIONS...

CITY           SKY/WX    TMP DP  RH WIND       PRES   REMARKS
GOODLAND KS    MOSUNNY   54  42  64 N12       30.33F
HILL CITY KS   SUNNY     57  43  59 N9        30.29S
IMPERIAL NEB   MOSUNNY   54  40  59 N8        30.33F
MCCOOK NEB     SUNNY     59  42  53 N13       30.30F
AKRON CO       CLOUDY    46  38  73 CALM      30.36S
BURLINGTON CO  MOSUNNY   52  40  63 NE10      30.34F
LIMON CO       PTSUNNY   48  38  68 NE7       30.36S
$$

...UNOFFICIAL OBSERVATIONS...

CITY           SKY/WX    TMP DP  RH WIND       PRES   REMARKS
COLBY KS       SUNNY     55  45  67 N8G17     30.32S
GOVE KS          N/A     57  32  39 MISG        N/A
LENORA KS        N/A     55  32  41 MISG        N/A
NORTON KS      SUNNY     57  39  51 N12       30.28F
SHARON SPRINGS   N/A     52  45  76 N7          N/A
TRIBUNE KS     SUNNY     55  46  71 N12G17    30.33S
KIT CARSON CO    N/A     52  42  68 MISG        N/A
YUMA CO          N/A     45  39  81 CALM        N/A
$$


USA.gov is the U.S. government's official web portal to all federal, state and local government web resources and services.